Regional Weather Roundup
Issued by NWS Jackson, KY

Home | Current Version | Previous Version | Text Only | Print | Product List | Glossary On
Versions: 1 2 3 4 5 6 7 8 9 10 11 12 13 14 15 16 17 18 19 20 21 22 23 24 25 26 27 28 29 30 31 32 33 34 35 36 37 38 39 40 41 42 43 44 45 46 47 48 49 50
000
ASUS43 KJKL 211519
RWRJKL

EAST KENTUCKY HOURLY WEATHER ROUNDUP
NATIONAL WEATHER SERVICE JACKSON KY
1100 AM EDT MON APR 21 2014

NOTE: "FAIR" INDICATES FEW OR NO CLOUDS BELOW 12,000 FEET WITH
NO SIGNIFICANT WEATHER AND/OR OBSTRUCTIONS TO VISIBILITY.

* THESE REPORTS ARE NOT UNDER NWS QUALITY CONTROL AND MAY NOT
  REPORT WEATHER SUCH AS PRECIPITATION AND FOG.

KYZ079-080-083-085-087-088-110-112-115-119-120-211600
...EASTERN KENTUCKY...

CITY           SKY/WX    TMP DP  RH WIND       PRES   REMARKS
JACKSON        SUNNY     70  39  32 VRB3      30.11F
LONDON         SUNNY     70  44  39 SW3       30.11F
SOMERSET*      PTSUNNY   68  45  42 SW3       30.12F
MONTICELLO*    MOSUNNY  N/A N/A N/A SW13      30.12F
MIDDLESBORO*   SUNNY     67  42  39 S7        30.14F
HARLAN APT*    SUNNY     68  34  28 CALM      30.14F
BLACK MTN*       N/A     61  30  31 S2          N/A
PIKEVILLE APT* SUNNY     68  37  32 SW5       30.11S
BIG SANDY*     SUNNY     71  39  32 SW3       30.10F
ASHLAND*       SUNNY     70  43  37 CALM      30.05F
MOREHEAD APT*  SUNNY     72  45  37 SW6       30.10F
$$

KYZ035-036-041-042-044-050-067-078-099-211600
...CENTRAL KENTUCKY...

CITY           SKY/WX    TMP DP  RH WIND       PRES   REMARKS
MT STERLING*   PTSUNNY   70  48  46 SW7       30.10S
FLEMING/MASON* SUNNY     72  50  46 SW7       30.08S
DANVILLE*      MOSUNNY   70  48  46 S7        30.09F
RICHMOND*      MOSUNNY   72  45  37 SW7       30.09S
LEXINGTON      PTSUNNY   71  48  43 SW7       30.08F
FRANKFORT      CLOUDY    71  44  37 SW8       30.06F
$$

KYZ091>093-OHZ055-061-077-WVZ005-015-034-035-042-211600
...SOUTHERN OHIO/WEST VIRGINIA...

CITY           SKY/WX    TMP DP  RH WIND       PRES   REMARKS
COVINGTON      PTSUNNY   71  46  40 SW5       30.05F
COLUMBUS       PTSUNNY   68  39  34 S5        30.04F
DAYTON         PTSUNNY   69  43  38 SW9       30.04F
WILMINGTON     MOSUNNY   72  44  36 SW10      30.04F
HUNTINGTON     SUNNY     70  37  29 S7        30.07F
CHARLESTON     MOSUNNY   71  34  25 W3        30.08F
PINEVILLE*     SUNNY     69  38  31 MISG      30.17F
BECKLEY        SUNNY     66  30  26 VRB6      30.13F
BLUEFIELD      SUNNY     68  30  24 SW7       30.16F
$$

VAZ002-007-008-TNZ017-027-036-066-071-211600
...SOUTHWEST VIRGINIA/EAST TENNESSEE...

CITY           SKY/WX    TMP DP  RH WIND       PRES   REMARKS
WISE*          SUNNY     64  32  29 SW9       30.17S
ABINGDON*      SUNNY     64  32  30 W8        30.17F
BRISTOL        MOSUNNY   63  33  32 CALM      30.17F
KNOXVILLE      PTSUNNY   65  42  43 SW8       30.15F
OAK RIDGE      SUNNY     67  40  37 W8        30.16F
CROSSVILLE     SUNNY     68  40  35 VRB5      30.16F
NASHVILLE      PTSUNNY   71  49  45 S7        30.09F
$$

...KEY TO REMARKS...
VSB - VISIBILITY IN MILES
WCI - WIND CHILL INDEX
HX  - HEAT INDEX

$$



USA.gov is the U.S. government's official web portal to all federal, state and local government web resources and services.